Weather Roundup
Issued by NWS Chicago, IL

Home | Current Version | Previous Version | Text Only | Print | Product List | Glossary On
Versions: 1 2 3 4 5 6 7 8 9 10 11 12 13 14 15 16 17 18 19 20 21 22 23 24 25 26 27 28 29 30 31 32 33 34 35 36 37 38 39 40 41 42 43 44 45 46 47 48 49 50
000
NZUS59 KLOT 270108
HRRLOT

CHICAGO AREA WEATHER ROUNDUP
NATIONAL WEATHER SERVICE CHICAGO/ROMEOVILLE IL
800 PM CDT TUE JUL 26 2016

NOTE: "FAIR" INDICATES FEW OR NO CLOUDS BELOW 12,000 FEET WITH NO
SIGNIFICANT WEATHER AND/OR OBSTRUCTIONS TO VISIBILITY.

* THESE STATIONS ARE NOT UNDER NWS QUALITY CONTROL. THEY ALSO MAY NOT
  REPORT WEATHER SUCH AS PRECIPITATION OR FOG.

ILZ005-006-012>014-019>023-270200-
NORTHEAST ILLINOIS

CITY           SKY/WX    TMP DP  RH WIND       PRES   REMARKS
OHARE          PTCLDY    82  62  50 E8        30.01R HX  83
MIDWAY         PTCLDY    83  62  49 E7        30.01R HX  84
AURORA         CLEAR     79  71  76 NW3       30.02R HX  82
LANSING*       PTCLDY    79  60  50 NE5       30.02R HX  80
JOLIET*        CLOUDY    84  67  56 W3        30.01R HX  87
WAUKEGAN       CLEAR     77  65  66 SE3       30.01S
DUPAGE AIRPORT MOCLDY    81  64  56 NW7       30.01S HX  82
WHEELING       CLEAR     80  62  54 E3        30.02S HX  81
KANKAKEE*      CLEAR     79  72  78 CALM      30.02S HX  82
MORRIS*        CLEAR     80  72  77 CALM      30.00S HX  83
LEWIS AIRPORT* CLOUDY    80  65  60 W5        30.01S HX  82
NORTHERLY ISL    N/A     76  68  76 CALM        N/A
$$

WIZ051-052-058>065-066-070>072-270200-
SOUTHEAST WISCONSIN

CITY           SKY/WX    TMP DP  RH WIND       PRES   REMARKS
MILWAUKEE      PTCLDY    80  61  52 S8        30.00F HX  81
KENOSHA*       CLEAR     79  63  57 SE6       30.02S HX  80
RACINE*        CLEAR     79  63  57 S7        30.02F HX  80
BURLINGTON     CLEAR     78  65  64 CALM      30.01F HX  80
WAUKESHA       CLEAR     79  61  53 CALM      30.02F HX  80
WEST BEND      CLEAR     79  63  57 SW3       30.00S HX  80
$$

INZ001>003-010>013-019-020-270200-
NORTHWEST INDIANA

CITY           SKY/WX    TMP DP  RH WIND       PRES   REMARKS
GARY*          PTCLDY    79  68  69 NE5       30.03R HX  81
MICHIGAN CITY* NOT AVBL
RENSSELAER*    NOT AVBL
VALPARAISO     CLEAR     77  64  64 N3        30.03S
$$

LMZ740>746-270200-
SOUTHERN LAKE MICHIGAN

STATION/POSITION TIME  SKY/WX   TEMP WIND        PRES    VSBY
                                AIR  DIR/SP/G
                 (UTC)          (F)  (DEG/KT/KT) (MB)    (MI)
HARRISON CRIB    0000            80  100/  5/  5   N/A
BURNHAM HARBOR   0100            76   CALM  /  2   N/A
CALUMET HARBOR   0018            77                N/A
BURNS HARBOR     0000            79   60/  8/  9 1016.6S
MICHIGAN CITY    0000            77   30/  7/  8   N/A
$$

ABBREVIATIONS USED IN REMARKS
   TC - TEMPERATURE IN CELSIUS
  WCI - WIND CHILL INDEX
   HX - HEAT INDEX
  VSB - VISIBILITY
$$




USA.gov is the U.S. government's official web portal to all federal, state and local government web resources and services.